[[{"header":{"parameterUnit":"m.s-1","parameterCategory":2,"la1":30.2992,"la2":30.254,"lo1":-89.0895,"lo2":-89.0443,"dy":0.0025,"dx":0.0025,"nx":19,"ny":19,"refTime":"2026-04-17T21:00:00:Z","depth":"0","parameterNumber":2,"parameterNumberName":"U-component_of_CURRENTS"},"data":[0,0,0,-0.3278,-0.328,-0.334,-0.334,-0.3363,-0.3363,0,0,0,0,0,0,0,0,0,0,0,-0.3241,-0.3241,-0.3278,-0.328,-0.334,-0.334,-0.3363,-0.3363,0,0,0,0,0,0,0,0,0,0,0,-0.324,-0.3241,-0.3241,-0.328,-0.334,-0.334,-0.3363,-0.3328,0,0,0,0,0,0,0,0,0,0,-0.3275,-0.3244,-0.3241,-0.3241,-0.328,-0.334,-0.334,-0.3327,-0.333,-0.3324,0,-0.3331,0,-0.3359,-0.3364,-0.3364,0,0,0,-0.3268,-0.3241,-0.3271,-0.3241,-0.3281,-0.334,-0.3309,-0.3329,-0.3333,-0.3328,-0.3332,-0.3334,-0.336,-0.3364,-0.3364,-0.3402,-0.3402,0,0,-0.3265,-0.3238,-0.3269,-0.3273,-0.3294,-0.3308,-0.3311,-0.3332,-0.3325,-0.3332,-0.3335,-0.336,-0.3364,-0.3365,-0.3402,-0.3402,0,0,0,-0.3263,-0.3236,-0.3266,-0.3271,-0.3294,-0.331,-0.3314,-0.3323,-0.3337,-0.3336,-0.336,-0.3365,-0.3365,-0.3402,-0.3402,-0.3426,0,0,0,-0.326,-0.3236,-0.3264,-0.3247,-0.3293,-0.3316,-0.3305,-0.3335,-0.3339,-0.336,-0.3365,-0.3365,-0.3401,-0.3402,-0.3425,-0.3435,0,0,0,-0.3238,-0.3234,-0.3243,-0.3246,-0.3281,-0.3317,-0.3331,-0.3337,-0.3355,-0.3364,-0.3365,-0.3401,-0.3402,-0.3423,-0.3433,-0.3453,0,0,0,-0.3206,-0.3227,-0.3242,-0.3279,-0.3281,-0.3348,-0.3331,-0.3364,-0.3375,-0.3365,-0.3401,-0.3402,-0.3423,-0.3432,-0.3452,-0.3406,-0.3409,0,0,-0.3221,-0.3227,-0.3256,-0.3273,-0.3333,-0.3339,-0.3391,-0.3389,-0.338,-0.3388,-0.3389,-0.3425,-0.3433,-0.3453,-0.3442,-0.3443,0,0,0,-0.3255,-0.3262,-0.3288,-0.3324,-0.3377,-0.3407,-0.3418,-0.3417,-0.342,-0.3393,-0.3431,-0.3435,-0.3447,-0.3417,-0.3418,-0.3364,-0.3405,-0.3405,-0.3405,-0.3203,-0.3257,-0.3295,-0.3356,-0.34,-0.3449,-0.3468,-0.3465,-0.3453,-0.3453,-0.3459,-0.3497,-0.3465,-0.3465,-0.3411,-0.3464,-0.3464,-0.3464,-0.3464,-0.3204,-0.3216,-0.3289,-0.3342,-0.3399,-0.3438,-0.3498,-0.3495,-0.3513,-0.3488,-0.3499,-0.3449,-0.3468,-0.3409,-0.3466,-0.3466,-0.3465,-0.3465,-0.3465,-0.3143,-0.3153,-0.3204,-0.3275,-0.3342,-0.3421,-0.348,-0.3516,-0.3527,-0.3545,-0.3508,-0.3507,-0.3451,-0.3548,-0.3548,-0.3549,-0.3549,-0.3549,-0.3549,-0.3039,-0.3096,-0.311,-0.3206,-0.3243,-0.3332,-0.3462,-0.3504,-0.3539,-0.3533,-0.3532,-0.3454,-0.3522,-0.3514,-0.3551,-0.3551,-0.355,-0.355,-0.355,-0.2918,-0.2956,-0.297,-0.3005,-0.3118,-0.3147,-0.3347,-0.3449,-0.3522,-0.3517,-0.3448,-0.3526,-0.3514,-0.3512,-0.3504,-0.3536,-0.3536,-0.3536,-0.3536,-0.2804,-0.2839,-0.2811,-0.2837,-0.2919,-0.3044,-0.3094,-0.323,-0.3336,-0.3335,-0.3413,-0.3371,-0.3374,-0.3352,-0.3354,-0.3342,-0.3332,-0.3332,-0.3332,-0.2691,-0.2717,-0.2635,-0.27,-0.2793,-0.2892,-0.2869,-0.301,-0.3208,-0.332,-0.335,-0.3358,-0.3294,-0.3303,-0.3265,-0.3272,-0.325,0,0]},{"header":{"parameterUnit":"m.s-1","parameterCategory":2,"la1":30.2992,"la2":30.254,"lo1":-89.0895,"lo2":-89.0443,"dy":0.0025,"dx":0.0025,"nx":19,"ny":19,"refTime":"2026-04-17T21:00:00:Z","depth":"0","parameterNumber":3,"parameterNumberName":"V-component_of_CURRENTS"},"data":[0,0,0,-0.0676,-0.0674,-0.0557,-0.0557,-0.0381,-0.038,0,0,0,0,0,0,0,0,0,0,0,-0.0718,-0.0717,-0.0676,-0.0674,-0.0557,-0.0557,-0.0381,-0.038,0,0,0,0,0,0,0,0,0,0,0,-0.0718,-0.0717,-0.0717,-0.0673,-0.0558,-0.0557,-0.0382,-0.0471,0,0,0,0,0,0,0,0,0,0,-0.0586,-0.0641,-0.0717,-0.0717,-0.0673,-0.0558,-0.0556,-0.0476,-0.0466,-0.0433,0,-0.0429,0,-0.0407,-0.0369,-0.0369,0,0,0,-0.0653,-0.065,-0.0616,-0.0717,-0.0672,-0.0558,-0.0604,-0.047,-0.0459,-0.0419,-0.0426,-0.042,-0.0404,-0.0368,-0.0367,-0.0267,-0.0267,0,0,-0.066,-0.0692,-0.0624,-0.061,-0.0659,-0.0608,-0.0601,-0.0463,-0.046,-0.0426,-0.0415,-0.0402,-0.0367,-0.0366,-0.0267,-0.0267,0,0,0,-0.0692,-0.0697,-0.0666,-0.0617,-0.0602,-0.0605,-0.0597,-0.0466,-0.0456,-0.0413,-0.0399,-0.0366,-0.0364,-0.0266,-0.0267,-0.0369,0,0,0,-0.0695,-0.0716,-0.067,-0.0686,-0.0605,-0.0538,-0.0602,-0.0465,-0.0449,-0.04,-0.0366,-0.0363,-0.0266,-0.0267,-0.0366,-0.0423,0,0,0,-0.072,-0.0719,-0.0711,-0.0689,-0.0647,-0.054,-0.052,-0.0461,-0.0441,-0.0369,-0.0362,-0.0266,-0.0267,-0.0364,-0.0418,-0.039,0,0,0,-0.0748,-0.0775,-0.0712,-0.0734,-0.0648,-0.0608,-0.0521,-0.0476,-0.0424,-0.0365,-0.0266,-0.0267,-0.0363,-0.0414,-0.0388,-0.0327,-0.0333,0,0,-0.0805,-0.0782,-0.0796,-0.0737,-0.0739,-0.0621,-0.0597,-0.0491,-0.041,-0.0306,-0.0303,-0.0367,-0.0417,-0.039,-0.0337,-0.0342,0,0,0,-0.0829,-0.0845,-0.0833,-0.0815,-0.0751,-0.069,-0.0576,-0.0509,-0.0412,-0.0382,-0.0341,-0.0369,-0.0349,-0.0307,-0.0311,-0.0001,-0.0267,-0.0267,-0.0267,-0.0944,-0.0911,-0.0941,-0.0893,-0.0852,-0.0727,-0.0663,-0.0545,-0.0462,-0.0433,-0.0434,-0.0461,-0.0418,-0.042,-0.0102,-0.0404,-0.0404,-0.0405,-0.0405,-0.1057,-0.1083,-0.1026,-0.1046,-0.0954,-0.0909,-0.074,-0.0661,-0.054,-0.0489,-0.0462,-0.0395,-0.043,-0.0089,-0.0411,-0.041,-0.0409,-0.0409,-0.0408,-0.1147,-0.116,-0.1158,-0.1171,-0.114,-0.1024,-0.0965,-0.0815,-0.0648,-0.0624,-0.0503,-0.05,-0.0211,-0.059,-0.059,-0.059,-0.059,-0.059,-0.059,-0.1245,-0.1244,-0.1309,-0.1304,-0.1316,-0.1273,-0.1092,-0.0985,-0.0754,-0.0606,-0.0603,-0.017,-0.0515,-0.0522,-0.0593,-0.0592,-0.0592,-0.0592,-0.0592,-0.137,-0.1365,-0.147,-0.1507,-0.1531,-0.152,-0.1334,-0.1042,-0.0874,-0.0741,-0.016,-0.0556,-0.0504,-0.0498,-0.0501,-0.0563,-0.0563,-0.0563,-0.0563,-0.1455,-0.1461,-0.161,-0.1695,-0.1737,-0.1639,-0.1482,-0.11,-0.0454,-0.0085,0.0028,0.0118,0.0103,0.0198,0.0188,0.0202,0.0321,0.0322,0.0324,-0.1539,-0.1576,-0.1701,-0.1776,-0.1833,-0.1752,-0.1565,-0.1048,-0.0062,0.0392,0.045,0.0413,0.0577,0.0528,0.07,0.0661,0.0691,0,0]}],[{"header":{"parameterUnit":"m.s-1","parameterCategory":2,"la1":30.2992,"la2":30.254,"lo1":-89.0895,"lo2":-89.0443,"dy":0.0025,"dx":0.0025,"nx":19,"ny":19,"refTime":"2026-04-17T21:00:00:Z","depth":"2","parameterNumber":2,"parameterNumberName":"U-component_of_CURRENTS"},"data":[0,0,0,-0.3194,-0.3196,-0.326,-0.326,-0.3285,-0.3285,0,0,0,0,0,0,0,0,0,0,0,-0.3156,-0.3157,-0.3194,-0.3196,-0.326,-0.326,-0.3285,-0.3285,0,0,0,0,0,0,0,0,0,0,0,-0.3156,-0.3157,-0.3157,-0.3196,-0.326,-0.326,-0.3285,-0.3248,0,0,0,0,0,0,0,0,0,0,-0.3191,-0.3161,-0.3156,-0.3157,-0.3197,-0.326,-0.326,-0.3247,-0.325,-0.3243,0,-0.3251,0,-0.328,-0.3286,-0.3286,0,0,0,-0.3185,-0.3158,-0.3188,-0.3157,-0.3198,-0.326,-0.3228,-0.3249,-0.3253,-0.3247,-0.3252,-0.3254,-0.328,-0.3286,-0.3286,-0.3325,-0.3325,0,0,-0.3181,-0.3156,-0.3186,-0.3191,-0.3212,-0.3226,-0.323,-0.3252,-0.3246,-0.3252,-0.3255,-0.328,-0.3287,-0.3287,-0.3325,-0.3325,0,0,0,-0.3179,-0.3153,-0.3183,-0.3189,-0.3211,-0.3228,-0.3233,-0.3245,-0.3258,-0.3256,-0.3281,-0.3287,-0.3287,-0.3324,-0.3325,-0.335,0,0,0,-0.3176,-0.3153,-0.3181,-0.3165,-0.3211,-0.3236,-0.3225,-0.3256,-0.3261,-0.3281,-0.3287,-0.3287,-0.3324,-0.3324,-0.3349,-0.3359,0,0,0,-0.3154,-0.3151,-0.316,-0.3164,-0.32,-0.3237,-0.3251,-0.3258,-0.3276,-0.3286,-0.3287,-0.3324,-0.3324,-0.3348,-0.3357,-0.3378,0,0,0,-0.3123,-0.3144,-0.3159,-0.3196,-0.32,-0.3267,-0.3251,-0.3286,-0.3298,-0.3287,-0.3324,-0.3325,-0.3348,-0.3356,-0.3376,-0.3311,-0.3311,0,0,-0.3138,-0.3144,-0.3172,-0.3189,-0.325,-0.3257,-0.331,-0.3311,-0.3303,-0.331,-0.3311,-0.335,-0.3357,-0.3377,-0.3348,-0.3347,0,0,0,-0.3171,-0.3179,-0.3205,-0.3241,-0.3294,-0.3326,-0.3339,-0.3339,-0.3344,-0.3316,-0.3356,-0.336,-0.3371,-0.3329,-0.3329,-0.3328,-0.3328,-0.3328,-0.3327,-0.3122,-0.3175,-0.3213,-0.3273,-0.3317,-0.3368,-0.3389,-0.3388,-0.3377,-0.3379,-0.3385,-0.3424,-0.3379,-0.3378,-0.3391,-0.3391,-0.3391,-0.3391,-0.3391,-0.3124,-0.3135,-0.3208,-0.3261,-0.3319,-0.3359,-0.342,-0.3419,-0.3438,-0.3415,-0.3426,-0.3364,-0.338,-0.3393,-0.3393,-0.3392,-0.3392,-0.3392,-0.3392,-0.3065,-0.3075,-0.3126,-0.3197,-0.3265,-0.3344,-0.3404,-0.3442,-0.3455,-0.3473,-0.3423,-0.3421,-0.3437,-0.3478,-0.3478,-0.3478,-0.3478,-0.3478,-0.3478,-0.2963,-0.302,-0.3036,-0.3131,-0.3169,-0.3259,-0.3389,-0.343,-0.3458,-0.3447,-0.3446,-0.3453,-0.345,-0.3442,-0.348,-0.348,-0.348,-0.348,-0.3479,-0.2846,-0.2884,-0.29,-0.2935,-0.3047,-0.3055,-0.3267,-0.3359,-0.3434,-0.3423,-0.3431,-0.3431,-0.3416,-0.3415,-0.3406,-0.3433,-0.3433,-0.3433,-0.3433,-0.2735,-0.2769,-0.2744,-0.277,-0.285,-0.2946,-0.2925,-0.294,-0.3078,-0.3056,-0.3071,-0.3008,-0.3021,-0.2979,-0.2988,-0.2968,-0.288,-0.2879,-0.2877,-0.2625,-0.2651,-0.2571,-0.2634,-0.2725,-0.2774,-0.2607,-0.2406,-0.2516,-0.2844,-0.2858,-0.3418,-0.3368,-0.337,-0.3341,-0.3341,-0.3323,0,0]},{"header":{"parameterUnit":"m.s-1","parameterCategory":2,"la1":30.2992,"la2":30.254,"lo1":-89.0895,"lo2":-89.0443,"dy":0.0025,"dx":0.0025,"nx":19,"ny":19,"refTime":"2026-04-17T21:00:00:Z","depth":"2","parameterNumber":3,"parameterNumberName":"V-component_of_CURRENTS"},"data":[0,0,0,-0.0608,-0.0606,-0.0491,-0.0491,-0.0315,-0.0313,0,0,0,0,0,0,0,0,0,0,0,-0.0649,-0.0649,-0.0608,-0.0606,-0.0492,-0.0491,-0.0315,-0.0313,0,0,0,0,0,0,0,0,0,0,0,-0.0649,-0.0649,-0.0649,-0.0605,-0.0492,-0.0491,-0.0315,-0.0404,0,0,0,0,0,0,0,0,0,0,-0.0517,-0.0573,-0.0649,-0.0649,-0.0605,-0.0492,-0.0491,-0.0408,-0.0398,-0.0364,0,-0.0361,0,-0.034,-0.0303,-0.0302,0,0,0,-0.0585,-0.0581,-0.0548,-0.0648,-0.0604,-0.0492,-0.0537,-0.0403,-0.0392,-0.0351,-0.0358,-0.0352,-0.0337,-0.0301,-0.0301,-0.0199,-0.0199,0,0,-0.0592,-0.0624,-0.0556,-0.0541,-0.0592,-0.0541,-0.0534,-0.0396,-0.0393,-0.0358,-0.0348,-0.0334,-0.03,-0.0299,-0.0199,-0.0199,0,0,0,-0.0624,-0.0628,-0.0598,-0.0549,-0.0534,-0.0538,-0.053,-0.0399,-0.0389,-0.0346,-0.0332,-0.03,-0.0298,-0.0199,-0.0199,-0.0302,0,0,0,-0.0626,-0.0648,-0.0602,-0.0619,-0.0538,-0.0471,-0.0536,-0.0398,-0.0382,-0.0333,-0.0299,-0.0296,-0.0199,-0.0199,-0.0299,-0.0355,0,0,0,-0.0651,-0.065,-0.0643,-0.0621,-0.058,-0.0473,-0.0454,-0.0394,-0.0374,-0.0302,-0.0296,-0.0199,-0.0199,-0.0297,-0.035,-0.0323,0,0,0,-0.0679,-0.0706,-0.0644,-0.0666,-0.0582,-0.0541,-0.0454,-0.0409,-0.0357,-0.0299,-0.0199,-0.0199,-0.0296,-0.0346,-0.032,-0.0261,-0.0266,0,0,-0.0735,-0.0713,-0.0727,-0.0669,-0.067,-0.0554,-0.0529,-0.0424,-0.0343,-0.0238,-0.0235,-0.03,-0.0349,-0.0322,-0.027,-0.0275,0,0,0,-0.0759,-0.0775,-0.0763,-0.0744,-0.0681,-0.0621,-0.0508,-0.0441,-0.0346,-0.0315,-0.0274,-0.0302,-0.0281,-0.0239,-0.0244,-0.02,-0.02,-0.02,-0.02,-0.0873,-0.084,-0.0869,-0.0821,-0.078,-0.0657,-0.0593,-0.0477,-0.0394,-0.0366,-0.0367,-0.0394,-0.0352,-0.0354,-0.0337,-0.0338,-0.0338,-0.0338,-0.0339,-0.0983,-0.1009,-0.0953,-0.0972,-0.0881,-0.0837,-0.0669,-0.0592,-0.0473,-0.0422,-0.0396,-0.0328,-0.0364,-0.0346,-0.0345,-0.0344,-0.0343,-0.0342,-0.0342,-0.1073,-0.1085,-0.1084,-0.1096,-0.1066,-0.0951,-0.0892,-0.0745,-0.058,-0.0557,-0.0437,-0.0434,-0.0448,-0.0524,-0.0524,-0.0524,-0.0524,-0.0524,-0.0525,-0.117,-0.1169,-0.1234,-0.1228,-0.124,-0.1197,-0.1019,-0.0913,-0.0686,-0.054,-0.0537,-0.0455,-0.0449,-0.0455,-0.0527,-0.0526,-0.0526,-0.0526,-0.0526,-0.1293,-0.1289,-0.1392,-0.143,-0.1452,-0.143,-0.1256,-0.0968,-0.0804,-0.0674,-0.0491,-0.0491,-0.0438,-0.0432,-0.0435,-0.0498,-0.0498,-0.0498,-0.0498,-0.1377,-0.1384,-0.1532,-0.1615,-0.1655,-0.1544,-0.1373,-0.1003,-0.065,-0.0449,-0.0451,-0.0416,-0.0417,-0.036,-0.0356,-0.0356,-0.0398,-0.0398,-0.0398,-0.146,-0.1498,-0.1621,-0.1695,-0.175,-0.1644,-0.1425,-0.0941,-0.0453,-0.0397,-0.046,-0.0486,-0.0437,-0.0438,-0.0349,-0.0344,-0.0343,0,0]}],[{"header":{"parameterUnit":"m.s-1","parameterCategory":2,"la1":30.2992,"la2":30.254,"lo1":-89.0895,"lo2":-89.0443,"dy":0.0025,"dx":0.0025,"nx":19,"ny":19,"refTime":"2026-04-17T21:00:00:Z","depth":"4","parameterNumber":2,"parameterNumberName":"U-component_of_CURRENTS"},"data":[0,0,0,-0.2219,-0.2223,-0.2425,-0.2426,-0.2553,-0.2554,0,0,0,0,0,0,0,0,0,0,0,-0.2151,-0.2153,-0.2218,-0.2223,-0.2425,-0.2426,-0.2553,-0.2554,0,0,0,0,0,0,0,0,0,0,0,-0.215,-0.2152,-0.2154,-0.2224,-0.2425,-0.2426,-0.2553,-0.2433,0,0,0,0,0,0,0,0,0,0,-0.2253,-0.2215,-0.2152,-0.2154,-0.2225,-0.2425,-0.2426,-0.2429,-0.2441,-0.2423,0,-0.2465,0,-0.2508,-0.2559,-0.2559,0,0,0,-0.2225,-0.2206,-0.2254,-0.2154,-0.2227,-0.2425,-0.2335,-0.2437,-0.2449,-0.2438,-0.2467,-0.2473,-0.251,-0.2559,-0.256,-0.2665,-0.2665,0,0,-0.2214,-0.2191,-0.2246,-0.2263,-0.2291,-0.2328,-0.2341,-0.2446,-0.2464,-0.2468,-0.2477,-0.2512,-0.256,-0.2561,-0.2664,-0.2665,0,0,0,-0.2181,-0.2183,-0.2232,-0.2256,-0.2302,-0.2334,-0.2349,-0.246,-0.2475,-0.2478,-0.2514,-0.256,-0.2561,-0.2664,-0.2664,-0.2708,0,0,0,-0.2174,-0.2163,-0.2226,-0.2215,-0.2301,-0.2403,-0.236,-0.2468,-0.2482,-0.2513,-0.256,-0.2562,-0.2663,-0.2664,-0.2705,-0.2711,0,0,0,-0.214,-0.216,-0.2185,-0.2213,-0.2299,-0.2403,-0.2426,-0.2473,-0.2502,-0.2559,-0.2562,-0.2663,-0.2664,-0.2703,-0.2707,-0.2727,0,0,0,-0.2104,-0.2149,-0.2185,-0.2254,-0.2297,-0.2418,-0.2426,-0.2526,-0.2581,-0.2561,-0.2663,-0.2664,-0.2703,-0.2705,-0.2725,-0.2416,0,0,0,-0.2132,-0.2152,-0.2192,-0.223,-0.2335,-0.2389,-0.2499,-0.2574,-0.2589,-0.2618,-0.2622,-0.2706,-0.2707,-0.2726,-0.2498,0,0,0,0,-0.2182,-0.2209,-0.225,-0.2326,-0.2415,-0.2503,-0.2583,-0.2611,-0.2681,-0.2628,-0.2721,-0.272,-0.2731,-0.2546,-0.2671,-0.2671,-0.2671,-0.267,-0.267,-0.2157,-0.2221,-0.2293,-0.2382,-0.2466,-0.2588,-0.2653,-0.2704,-0.2716,-0.2755,-0.2768,-0.2826,-0.2634,-0.2788,-0.2788,-0.2788,-0.2788,-0.2789,-0.2789,-0.2168,-0.2192,-0.2308,-0.2403,-0.2511,-0.2612,-0.2723,-0.2758,-0.2824,-0.2818,-0.2827,-0.2619,-0.2793,-0.2792,-0.2792,-0.2791,-0.2791,-0.279,-0.279,-0.2106,-0.2124,-0.2223,-0.236,-0.2498,-0.2633,-0.2716,-0.2809,-0.2855,-0.2884,-0.2685,-0.2852,-0.2834,-0.29,-0.29,-0.29,-0.29,-0.29,-0.29,-0.1977,-0.2075,-0.2147,-0.2313,-0.2403,-0.254,-0.2722,-0.2755,-0.2838,-0.2693,-0.2902,-0.2863,-0.2859,-0.284,-0.2902,-0.2902,-0.2902,-0.2901,-0.2901,-0.1852,-0.1925,-0.2001,-0.2094,-0.2285,-0.2355,-0.259,-0.2592,-0.2604,-0.2524,-0.2581,-0.2597,-0.2547,-0.2551,-0.2519,-0.2488,-0.2484,-0.248,0,-0.1742,-0.179,-0.1859,-0.1944,-0.2027,-0.2225,-0.219,-0.2281,-0.2334,-0.2254,-0.2584,-0.2648,-0.2656,-0.2601,-0.2599,-0.256,0,0,0,-0.1647,-0.1688,-0.1676,-0.18,-0.1883,-0.1977,-0.2162,-0.2103,-0.2344,-0.2264,-0.2386,-0.2411,-0.2734,-0.2908,-0.2868,-0.2864,-0.2831,0,0]},{"header":{"parameterUnit":"m.s-1","parameterCategory":2,"la1":30.2992,"la2":30.254,"lo1":-89.0895,"lo2":-89.0443,"dy":0.0025,"dx":0.0025,"nx":19,"ny":19,"refTime":"2026-04-17T21:00:00:Z","depth":"4","parameterNumber":3,"parameterNumberName":"V-component_of_CURRENTS"},"data":[0,0,0,-0.0324,-0.0323,-0.0258,-0.0257,-0.0121,-0.012,0,0,0,0,0,0,0,0,0,0,0,-0.0349,-0.0349,-0.0324,-0.0323,-0.0258,-0.0257,-0.0122,-0.012,0,0,0,0,0,0,0,0,0,0,0,-0.0349,-0.0349,-0.0349,-0.0323,-0.0258,-0.0257,-0.0122,-0.018,0,0,0,0,0,0,0,0,0,0,-0.0248,-0.029,-0.0349,-0.0349,-0.0323,-0.0258,-0.0257,-0.0183,-0.0176,-0.0142,0,-0.0146,0,-0.0136,-0.0112,-0.0111,0,0,0,-0.0305,-0.0296,-0.0276,-0.0349,-0.0323,-0.0258,-0.0282,-0.018,-0.0172,-0.0132,-0.0145,-0.014,-0.0133,-0.0111,-0.011,-0.0031,-0.0031,0,0,-0.0309,-0.0332,-0.0282,-0.0272,-0.0323,-0.0285,-0.0281,-0.0175,-0.0175,-0.0144,-0.0137,-0.0131,-0.011,-0.0109,-0.0031,-0.0031,0,0,0,-0.0331,-0.0335,-0.0318,-0.0278,-0.0273,-0.0283,-0.0278,-0.0179,-0.0174,-0.0135,-0.0129,-0.0109,-0.0107,-0.0031,-0.0031,-0.0129,0,0,0,-0.0333,-0.0349,-0.032,-0.0332,-0.0276,-0.0234,-0.0285,-0.0181,-0.0169,-0.013,-0.0109,-0.0106,-0.0031,-0.0031,-0.0126,-0.0172,0,0,0,-0.0349,-0.035,-0.0348,-0.0334,-0.0313,-0.0236,-0.0224,-0.0178,-0.0166,-0.0111,-0.0106,-0.0031,-0.0031,-0.0124,-0.0167,-0.0147,0,0,0,-0.0365,-0.039,-0.0349,-0.0373,-0.0314,-0.0296,-0.0224,-0.0199,-0.0161,-0.0108,-0.0031,-0.0031,-0.0123,-0.0164,-0.0145,-0.0163,0,0,0,-0.0409,-0.0396,-0.041,-0.0373,-0.0387,-0.0302,-0.0295,-0.0216,-0.0147,-0.0058,-0.0056,-0.0127,-0.0166,-0.0146,-0.0177,0,0,0,0,-0.0432,-0.0448,-0.0444,-0.0441,-0.0403,-0.0369,-0.0286,-0.0235,-0.0162,-0.0128,-0.0104,-0.0125,-0.011,-0.0113,-0.0032,-0.0032,-0.0032,-0.0032,-0.0032,-0.0512,-0.0496,-0.0528,-0.0507,-0.0486,-0.0407,-0.0364,-0.0273,-0.0207,-0.0189,-0.0189,-0.022,-0.0228,-0.0166,-0.0167,-0.0167,-0.0168,-0.0168,-0.0168,-0.0589,-0.0609,-0.0593,-0.0623,-0.0575,-0.0555,-0.0433,-0.0377,-0.0286,-0.0243,-0.0223,-0.0198,-0.0177,-0.0175,-0.0174,-0.0173,-0.0172,-0.0172,-0.0171,-0.0639,-0.065,-0.0675,-0.0713,-0.072,-0.0653,-0.0615,-0.0509,-0.0381,-0.0366,-0.0312,-0.0262,-0.0269,-0.0343,-0.0343,-0.0343,-0.0343,-0.0343,-0.0343,-0.0677,-0.0701,-0.0774,-0.0808,-0.0845,-0.0836,-0.072,-0.0637,-0.0498,-0.0415,-0.0384,-0.0278,-0.0272,-0.0276,-0.0346,-0.0345,-0.0345,-0.0345,-0.0345,-0.073,-0.0753,-0.0859,-0.0919,-0.099,-0.097,-0.0875,-0.0677,-0.0586,-0.0484,-0.041,-0.0406,-0.0358,-0.035,-0.0355,-0.0451,-0.0451,-0.0452,0,-0.0765,-0.0784,-0.0933,-0.1035,-0.1086,-0.104,-0.0918,-0.0788,-0.06,-0.0601,-0.0592,-0.0518,-0.0511,-0.0467,-0.046,-0.0473,0,0,0,-0.0801,-0.0845,-0.0953,-0.106,-0.1126,-0.0977,-0.0876,-0.0801,-0.0642,-0.0531,-0.0464,-0.0461,-0.0441,-0.0352,-0.0268,-0.0261,-0.0263,0,0]}]]